TAP28 SBSV-LPPT

Flight info

Callsign TAP28
Flight time N/A
Altitude 29000
Route ARVOR DCT SIPEP UZ14 AMBET UN857 GUNET N857 BIPET DCT GDV N873 SAMAR DCT OSDIV UN866 BEXAL DCT LUVUP
Aircraft A346/H-SDE2E3FGHIJ3J4J5M1RWXY/LB1D1

Departure

Time 2026-05-07 17:35
Airport Deputado Luiz Eduardo Magalhães International Airport (SBSV)

Arrival

Time N/A
Airport Lisbon Humberto Delgado Airport (LPPT)
Time Latitude Longitude Altitude Speed Heading
2026-05-07 17:25 -12.91634 -38.33276 52 ft 0 kts 178°
2026-05-07 17:26 -12.91612 -38.33277 48 ft 0 kts 178°
2026-05-07 17:27 -12.91585 -38.33278 44 ft 0 kts 178°
2026-05-07 17:27 -12.91559 -38.33279 45 ft 0 kts 178°
2026-05-07 17:27 -12.91532 -38.33280 47 ft 0 kts 178°
2026-05-07 17:27 -12.91523 -38.33280 46 ft 0 kts 178°
2026-05-07 17:30 -12.91524 -38.33280 46 ft 1 kts 178°
2026-05-07 17:30 -12.91536 -38.33278 45 ft 3 kts 164°
2026-05-07 17:30 -12.91555 -38.33262 44 ft 4 kts 121°
2026-05-07 17:31 -12.91559 -38.33224 49 ft 9 kts 82°
2026-05-07 17:31 -12.91549 -38.33154 52 ft 11 kts 73°
2026-05-07 17:31 -12.91493 -38.33099 52 ft 12 kts 29°
2026-05-07 17:31 -12.91406 -38.33090 52 ft 14 kts 351°
2026-05-07 17:32 -12.91310 -38.33107 48 ft 15 kts 347°
2026-05-07 17:32 -12.91217 -38.33147 52 ft 15 kts 303°
2026-05-07 17:32 -12.91218 -38.33256 50 ft 16 kts 263°
2026-05-07 17:32 -12.91198 -38.33370 46 ft 17 kts 290°
2026-05-07 17:33 -12.91189 -38.33482 51 ft 18 kts 257°
2026-05-07 17:33 -12.91160 -38.33585 51 ft 10 kts 341°
2026-05-07 17:33 -12.91139 -38.33583 52 ft 3 kts
2026-05-07 17:33 -12.91126 -38.33577 48 ft 1 kts 53°
2026-05-07 17:34 -12.91124 -38.33572 48 ft 2 kts 75°
2026-05-07 17:34 -12.91115 -38.33539 49 ft 15 kts 75°
2026-05-07 17:34 -12.91041 -38.33175 48 ft 90 kts 78°
2026-05-07 17:34 -12.90867 -38.32310 55 ft 152 kts 78°
2026-05-07 17:35 -12.90631 -38.31119 330 ft 177 kts 81°
2026-05-07 17:35 -12.90397 -38.29898 1181 ft 171 kts 83°
2026-05-07 17:35 -12.90193 -38.28689 1906 ft 177 kts 83°
2026-05-07 17:35 -12.89909 -38.27410 2311 ft 191 kts 76°
2026-05-07 17:36 -12.89501 -38.26063 2734 ft 204 kts 75°
2026-05-07 17:36 -12.89035 -38.24684 3215 ft 211 kts 73°
2026-05-07 17:36 -12.88548 -38.23239 3706 ft 217 kts 78°
2026-05-07 17:36 -12.88197 -38.21682 4102 ft 231 kts 80°
2026-05-07 17:37 -12.87845 -38.20011 4437 ft 248 kts 79°
2026-05-07 17:37 -12.87452 -38.18227 4819 ft 262 kts 79°
2026-05-07 17:37 -12.87028 -38.16384 5465 ft 267 kts 78°
2026-05-07 17:37 -12.86590 -38.14529 6228 ft 268 kts 78°
2026-05-07 17:38 -12.86152 -38.12688 6891 ft 271 kts 78°
2026-05-07 17:38 -12.85703 -38.10804 7555 ft 273 kts 77°
2026-05-07 17:38 -12.85250 -38.08906 8214 ft 276 kts 77°
2026-05-07 17:38 -12.84573 -38.07053 8848 ft 280 kts 62°
2026-05-07 17:39 -12.83429 -38.05428 9506 ft 284 kts 50°
2026-05-07 17:39 -12.82066 -38.03945 10104 ft 287 kts 48°
2026-05-07 17:39 -12.80652 -38.02453 10516 ft 298 kts 47°
2026-05-07 17:39 -12.79168 -38.00887 10777 ft 313 kts 47°
2026-05-07 17:40 -12.77619 -37.99247 11042 ft 328 kts 47°
2026-05-07 17:40 -12.76022 -37.97550 11292 ft 342 kts 47°
2026-05-07 17:40 -12.74337 -37.95759 11546 ft 356 kts 47°
2026-05-07 17:40 -12.72576 -37.93884 11802 ft 370 kts 47°
2026-05-07 17:41 -12.70760 -37.91951 12117 ft 382 kts 47°
2026-05-07 17:41 -12.68903 -37.89973 12638 ft 386 kts 47°
2026-05-07 17:41 -12.67034 -37.87985 13247 ft 389 kts 47°
2026-05-07 17:41 -12.65147 -37.85976 13816 ft 393 kts 47°
2026-05-07 17:42 -12.63244 -37.83949 14289 ft 397 kts 47°
2026-05-07 17:42 -12.61346 -37.81927 14805 ft 400 kts 46°
2026-05-07 17:42 -12.59409 -37.79864 15300 ft 403 kts 46°
2026-05-07 17:42 -12.57451 -37.77782 15802 ft 407 kts 46°
2026-05-07 17:43 -12.55482 -37.75687 16267 ft 410 kts 46°
2026-05-07 17:43 -12.53494 -37.73574 16752 ft 414 kts 46°
2026-05-07 17:43 -12.51486 -37.71439 17233 ft 417 kts 46°
2026-05-07 17:43 -12.49467 -37.69292 17697 ft 421 kts 45°
2026-05-07 17:44 -12.47426 -37.67124 18140 ft 424 kts 45°
2026-05-07 17:44 -12.45365 -37.64935 18534 ft 428 kts 45°
2026-05-07 17:44 -12.43316 -37.62760 18907 ft 432 kts 45°
2026-05-07 17:44 -12.41224 -37.60538 19281 ft 435 kts 45°
2026-05-07 17:45 -12.39112 -37.58298 19642 ft 439 kts 45°
2026-05-07 17:45 -12.36985 -37.56042 20034 ft 442 kts 45°
2026-05-07 17:45 -12.34846 -37.53773 20428 ft 445 kts 45°
2026-05-07 17:45 -12.32686 -37.51483 20829 ft 448 kts 45°
2026-05-07 17:46 -12.30514 -37.49180 21214 ft 451 kts 45°
2026-05-07 17:46 -12.28328 -37.46862 21607 ft 454 kts 45°
2026-05-07 17:46 -12.26159 -37.44563 21991 ft 457 kts 45°
2026-05-07 17:46 -12.23945 -37.42217 22380 ft 459 kts 45°
2026-05-07 17:47 -12.21716 -37.39856 22755 ft 462 kts 45°
2026-05-07 17:47 -12.19478 -37.37486 23132 ft 465 kts 44°
2026-05-07 17:47 -12.17222 -37.35097 23509 ft 468 kts 44°
2026-05-07 17:47 -12.14954 -37.32697 23836 ft 470 kts 44°
2026-05-07 17:48 -12.12675 -37.30286 24156 ft 473 kts 44°
2026-05-07 17:48 -12.10384 -37.27863 24492 ft 475 kts 44°
2026-05-07 17:48 -12.08113 -37.25462 24818 ft 477 kts 44°
2026-05-07 17:48 -12.05799 -37.23015 25145 ft 479 kts 44°
2026-05-07 17:49 -12.03406 -37.20634 25447 ft 481 kts 40°
2026-05-07 17:49 -12.00790 -37.18491 25754 ft 482 kts 34°
2026-05-07 17:49 -11.97969 -37.16625 26069 ft 483 kts 28°
2026-05-07 17:49 -11.95005 -37.14993 26383 ft 484 kts 25°
2026-05-07 17:50 -11.92005 -37.13412 26712 ft 487 kts 25°
2026-05-07 17:50 -11.88983 -37.11834 27030 ft 489 kts 25°
2026-05-07 17:50 -11.85953 -37.10249 27416 ft 489 kts 25°
2026-05-07 17:50 -11.82973 -37.08686 27829 ft 489 kts 25°
2026-05-07 17:51 -11.79905 -37.07074 28175 ft 491 kts 25°
2026-05-07 17:51 -11.76903 -37.05494 28492 ft 493 kts 25°
2026-05-07 17:51 -11.73850 -37.03886 28827 ft 494 kts 25°
2026-05-07 17:51 -11.70784 -37.02271 28974 ft 496 kts 25°
2026-05-07 17:52 -11.64642 -36.99034 28975 ft 497 kts 25°
2026-05-07 17:52 -11.58498 -36.95797 28978 ft 497 kts 25°
2026-05-07 17:53 -11.52389 -36.92580 28976 ft 497 kts 24°
2026-05-07 17:53 -11.46238 -36.89342 28970 ft 497 kts 24°
2026-05-07 17:54 -11.40090 -36.86107 28976 ft 497 kts 24°
2026-05-07 17:54 -11.33940 -36.82873 28967 ft 497 kts 24°
2026-05-07 17:55 -11.27836 -36.79664 28972 ft 497 kts 24°
2026-05-07 17:55 -11.21688 -36.76435 28967 ft 497 kts 24°
2026-05-07 17:56 -11.15546 -36.73209 28977 ft 497 kts 24°
2026-05-07 17:56 -11.09394 -36.69981 28967 ft 497 kts 24°
2026-05-07 17:57 -11.04292 -36.67304 28961 ft 496 kts 24°
2026-05-07 17:57 -10.97155 -36.63562 28965 ft 496 kts 24°
2026-05-07 17:58 -10.91008 -36.60340 28965 ft 497 kts 24°
2026-05-07 17:58 -10.84866 -36.57123 28960 ft 497 kts 23°
2026-05-07 17:59 -10.78762 -36.53927 28963 ft 496 kts 23°
2026-05-07 17:59 -10.72618 -36.50712 28964 ft 496 kts 23°
2026-05-07 18:00 -10.66475 -36.47499 28967 ft 496 kts 23°
2026-05-07 18:00 -10.60336 -36.44290 28960 ft 496 kts 23°
2026-05-07 18:01 -10.54240 -36.41104 28963 ft 496 kts 23°
2026-05-07 18:01 -10.48107 -36.37902 28961 ft 495 kts 23°
2026-05-07 18:02 -10.38905 -36.33098 28961 ft 495 kts 23°
2026-05-07 18:03 -10.32929 -36.29551 28963 ft 499 kts 29°
2026-05-07 18:03 -10.27241 -36.25559 28962 ft 500 kts 31°
2026-05-07 18:04 -10.21539 -36.21502 28963 ft 500 kts 31°
2026-05-07 18:04 -10.15835 -36.17451 28960 ft 500 kts 31°
2026-05-07 18:05 -10.10162 -36.13430 28961 ft 500 kts 31°
2026-05-07 18:05 -10.04443 -36.09380 28958 ft 501 kts 31°
2026-05-07 18:06 -9.98729 -36.05334 28958 ft 501 kts 31°
2026-05-07 18:06 -9.93011 -36.01288 28960 ft 501 kts 31°
2026-05-07 18:07 -9.87292 -35.97243 28956 ft 501 kts 30°
2026-05-07 18:07 -9.81801 -35.93362 28958 ft 501 kts 31°
2026-05-07 18:08 -9.76083 -35.89321 28955 ft 501 kts 31°
2026-05-07 18:08 -9.70355 -35.85275 28948 ft 501 kts 31°
2026-05-07 18:09 -9.64670 -35.81261 28944 ft 501 kts 31°
2026-05-07 18:09 -9.58947 -35.77222 28958 ft 501 kts 31°
2026-05-07 18:10 -9.53224 -35.73184 28953 ft 501 kts 30°
2026-05-07 18:10 -9.47505 -35.69151 28946 ft 501 kts 31°
2026-05-07 18:11 -9.41815 -35.65141 28951 ft 501 kts 31°
2026-05-07 18:11 -9.36093 -35.61110 28952 ft 501 kts 30°
2026-05-07 18:12 -9.30378 -35.57086 28960 ft 500 kts 30°
2026-05-07 18:12 -9.24662 -35.53063 28960 ft 500 kts 30°
2026-05-07 18:13 -9.18986 -35.49068 28957 ft 500 kts 30°
2026-05-07 18:13 -9.13272 -35.45047 28954 ft 500 kts 30°
2026-05-07 18:14 -9.07556 -35.41026 28953 ft 500 kts 30°
2026-05-07 18:14 -9.01844 -35.37013 28952 ft 500 kts 31°
2026-05-07 18:15 -8.96164 -35.33024 28948 ft 500 kts 31°
2026-05-07 18:15 -8.90443 -35.29007 28950 ft 500 kts 31°
2026-05-07 18:16 -8.84727 -35.24993 28947 ft 500 kts 31°
2026-05-07 18:16 -8.79005 -35.20974 28947 ft 500 kts 31°
2026-05-07 18:17 -8.73322 -35.16985 28944 ft 500 kts 31°
2026-05-07 18:17 -8.67608 -35.12977 28942 ft 500 kts 31°
2026-05-07 18:18 -8.61889 -35.08968 28945 ft 500 kts 31°
2026-05-07 18:18 -8.56172 -35.04962 28942 ft 500 kts 31°
2026-05-07 18:19 -8.51199 -35.01478 28942 ft 500 kts 31°
2026-05-07 18:19 -8.45501 -34.97488 28941 ft 500 kts 31°
2026-05-07 18:20 -8.39785 -34.93488 28935 ft 500 kts 31°
2026-05-07 18:20 -8.34058 -34.89481 28927 ft 500 kts 31°
2026-05-07 18:21 -8.28338 -34.85481 28924 ft 500 kts 31°
2026-05-07 18:21 -8.22659 -34.81512 28921 ft 500 kts 31°
2026-05-07 18:22 -8.17079 -34.77513 28925 ft 501 kts 33°
2026-05-07 18:22 -8.11488 -34.73051 28926 ft 502 kts 35°
2026-05-07 18:23 -8.06017 -34.68653 28929 ft 502 kts 35°
2026-05-07 18:23 -8.00587 -34.64295 28935 ft 502 kts 35°
2026-05-07 18:24 -7.95117 -34.59912 28936 ft 502 kts 35°
2026-05-07 18:24 -7.89644 -34.55530 28936 ft 502 kts 35°
2026-05-07 18:25 -7.84171 -34.51149 28936 ft 502 kts 35°
2026-05-07 18:25 -7.78705 -34.46853 28937 ft 500 kts 32°
2026-05-07 18:26 -7.72887 -34.43034 28937 ft 497 kts 26°
2026-05-07 18:26 -7.66789 -34.39770 28932 ft 496 kts 24°
2026-05-07 18:27 -7.60654 -34.36590 28934 ft 496 kts 24°
2026-05-07 18:27 -7.54566 -34.33431 28931 ft 495 kts 24°
2026-05-07 18:28 -7.48440 -34.30249 28932 ft 495 kts 24°
2026-05-07 18:28 -7.42312 -34.27064 28931 ft 495 kts 24°
2026-05-07 18:29 -7.36187 -34.23881 28932 ft 495 kts 24°
2026-05-07 18:29 -7.30109 -34.20724 28929 ft 495 kts 24°
2026-05-07 18:30 -7.23985 -34.17544 28929 ft 495 kts 24°
2026-05-07 18:30 -7.17870 -34.14369 28928 ft 494 kts 24°
2026-05-07 18:31 -7.11756 -34.11196 28928 ft 494 kts 24°
2026-05-07 18:31 -7.05651 -34.08028 28924 ft 493 kts 24°
2026-05-07 18:32 -6.99596 -34.04887 28925 ft 493 kts 24°
2026-05-07 18:32 -6.93503 -34.01727 28924 ft 492 kts 24°
2026-05-07 18:33 -6.87422 -33.98574 28927 ft 491 kts 25°
2026-05-07 18:33 -6.81349 -33.95427 28922 ft 490 kts 25°
2026-05-07 18:34 -6.75321 -33.92304 28924 ft 490 kts 25°
2026-05-07 18:34 -6.69266 -33.89168 28923 ft 489 kts 25°
2026-05-07 18:35 -6.63219 -33.86037 28922 ft 489 kts 25°
2026-05-07 18:35 -6.57171 -33.82906 28922 ft 488 kts 25°
2026-05-07 18:36 -6.51170 -33.79800 28916 ft 488 kts 25°
2026-05-07 18:36 -6.45132 -33.76676 28916 ft 488 kts 25°
2026-05-07 18:37 -6.39098 -33.73555 28916 ft 488 kts 25°
2026-05-07 18:37 -6.33066 -33.70435 28918 ft 488 kts 25°
2026-05-07 18:38 -6.27067 -33.67334 28918 ft 487 kts 25°
2026-05-07 18:38 -6.21035 -33.64216 28919 ft 487 kts 25°
2026-05-07 18:39 -6.15006 -33.61100 28917 ft 487 kts 25°
2026-05-07 18:39 -6.08983 -33.57989 28924 ft 487 kts 25°
2026-05-07 18:40 -6.03002 -33.54899 28922 ft 486 kts 25°
2026-05-07 18:40 -5.96976 -33.51787 28922 ft 486 kts 25°
2026-05-07 18:41 -5.90962 -33.48683 28922 ft 486 kts 25°
2026-05-07 18:41 -5.84986 -33.45600 28924 ft 485 kts 25°
2026-05-07 18:42 -5.78981 -33.42501 28924 ft 485 kts 25°
2026-05-07 18:42 -5.72976 -33.39404 28928 ft 485 kts 25°
2026-05-07 18:43 -5.66986 -33.36315 28926 ft 484 kts 25°
2026-05-07 18:43 -5.60992 -33.33225 28930 ft 484 kts 25°
2026-05-07 18:44 -5.55055 -33.30165 28930 ft 483 kts 25°
2026-05-07 18:44 -5.49082 -33.27088 28928 ft 482 kts 26°
2026-05-07 18:45 -5.43117 -33.24015 28926 ft 481 kts 26°
2026-05-07 18:45 -5.37195 -33.20965 28928 ft 481 kts 26°
2026-05-07 18:46 -5.31243 -33.17900 28930 ft 481 kts 26°
2026-05-07 18:46 -5.25289 -33.14834 28930 ft 481 kts 26°
2026-05-07 18:47 -5.19325 -33.11764 28929 ft 482 kts 26°
2026-05-07 18:47 -5.13398 -33.08714 28933 ft 482 kts 26°
2026-05-07 18:48 -5.07415 -33.05636 28931 ft 483 kts 26°
2026-05-07 18:48 -5.01428 -33.02556 28932 ft 484 kts 26°
2026-05-07 18:49 -4.95439 -32.99474 28934 ft 485 kts 26°
2026-05-07 18:49 -4.89468 -32.96403 28934 ft 485 kts 26°
2026-05-07 18:50 -4.83448 -32.93309 28933 ft 486 kts 26°
2026-05-07 18:50 -4.77419 -32.90210 28930 ft 487 kts 26°
2026-05-07 18:51 -4.71386 -32.87111 28938 ft 488 kts 26°
2026-05-07 18:51 -4.65382 -32.84028 28932 ft 488 kts 26°
2026-05-07 18:52 -4.59332 -32.80920 28932 ft 488 kts 26°
2026-05-07 18:52 -4.53280 -32.77798 28937 ft 489 kts 26°
2026-05-07 18:53 -4.47215 -32.74669 28932 ft 491 kts 26°
2026-05-07 18:53 -4.41170 -32.71554 28942 ft 493 kts 26°
2026-05-07 18:54 -4.35062 -32.68407 28939 ft 494 kts 26°
2026-05-07 18:54 -4.28938 -32.65253 28933 ft 495 kts 26°
2026-05-07 18:55 -4.22805 -32.62097 28933 ft 496 kts 26°
2026-05-07 18:55 -4.16709 -32.58960 28930 ft 495 kts 26°
2026-05-07 18:56 -4.11366 -32.56210 28929 ft 495 kts 26°
2026-05-07 18:56 -4.05624 -32.53256 28925 ft 495 kts 26°
2026-05-07 18:57 -3.99488 -32.50099 28922 ft 496 kts 26°
2026-05-07 18:57 -3.93396 -32.46967 28920 ft 495 kts 26°
2026-05-07 18:58 -3.87264 -32.43813 28922 ft 495 kts 26°
2026-05-07 18:58 -3.81147 -32.40622 28921 ft 496 kts 27°
2026-05-07 18:59 -3.75049 -32.37390 28922 ft 496 kts 27°
2026-05-07 18:59 -3.68987 -32.34182 28923 ft 496 kts 27°
2026-05-07 19:00 -3.62883 -32.30958 28923 ft 496 kts 26°
2026-05-07 19:00 -3.56770 -32.27731 28927 ft 496 kts 26°
2026-05-07 19:01 -3.50656 -32.24505 28924 ft 497 kts 26°
2026-05-07 19:01 -3.44573 -32.21297 28929 ft 497 kts 26°
2026-05-07 19:02 -3.38448 -32.18066 28924 ft 497 kts 26°
2026-05-07 19:02 -3.32322 -32.14837 28922 ft 498 kts 26°
2026-05-07 19:03 -3.26193 -32.11608 28924 ft 498 kts 26°
2026-05-07 19:03 -3.20049 -32.08418 28920 ft 497 kts 26°
2026-05-07 19:04 -3.13948 -32.05263 28922 ft 497 kts 26°
2026-05-07 19:04 -3.07752 -32.02058 29094 ft 504 kts 26°
2026-05-07 19:04 -3.04632 -32.00444 29354 ft 505 kts 26°
2026-05-07 19:05 -3.01513 -31.98830 29689 ft 504 kts 26°
2026-05-07 19:05 -2.98398 -31.97217 30018 ft 504 kts 26°
2026-05-07 19:05 -2.95288 -31.95607 30288 ft 503 kts 26°
2026-05-07 19:05 -2.92179 -31.93999 30573 ft 503 kts 26°
2026-05-07 19:06 -2.89117 -31.92415 30854 ft 502 kts 26°
2026-05-07 19:06 -2.82924 -31.89210 31446 ft 500 kts 26°
2026-05-07 19:06 -2.79833 -31.87611 31737 ft 500 kts 26°
2026-05-07 19:07 -2.76744 -31.86013 32030 ft 499 kts 26°
2026-05-07 19:07 -2.73662 -31.84419 32323 ft 498 kts 26°
2026-05-07 19:07 -2.70584 -31.82826 32628 ft 497 kts 27°
2026-05-07 19:07 -2.67515 -31.81239 32916 ft 497 kts 27°
2026-05-07 19:08 -2.64484 -31.79671 33199 ft 496 kts 27°
2026-05-07 19:08 -2.61422 -31.78087 33489 ft 496 kts 27°
2026-05-07 19:08 -2.58361 -31.76504 33773 ft 495 kts 27°
2026-05-07 19:08 -2.55298 -31.74919 34038 ft 495 kts 27°
2026-05-07 19:09 -2.52241 -31.73339 34282 ft 494 kts 27°
2026-05-07 19:09 -2.49191 -31.71762 34526 ft 494 kts 27°
2026-05-07 19:09 -2.46137 -31.70184 34752 ft 494 kts 27°
2026-05-07 19:09 -2.43086 -31.68606 34996 ft 493 kts 27°
2026-05-07 19:10 -2.40079 -31.67052 35240 ft 493 kts 27°
2026-05-07 19:10 -2.37033 -31.65477 35491 ft 492 kts 27°
2026-05-07 19:10 -2.33997 -31.63907 35721 ft 492 kts 27°
2026-05-07 19:10 -2.30958 -31.62336 35949 ft 491 kts 27°
2026-05-07 19:11 -2.27916 -31.60763 36169 ft 491 kts 27°
2026-05-07 19:11 -2.24882 -31.59194 36385 ft 491 kts 27°
2026-05-07 19:11 -2.21853 -31.57628 36602 ft 491 kts 27°
2026-05-07 19:11 -2.18817 -31.56059 36839 ft 490 kts 27°
2026-05-07 19:12 -2.12799 -31.52949 36918 ft 490 kts 27°
2026-05-07 19:12 -2.06742 -31.49819 36921 ft 490 kts 27°
2026-05-07 19:13 -2.00678 -31.46686 36920 ft 490 kts 27°
2026-05-07 19:13 -1.94623 -31.43557 36925 ft 490 kts 27°
2026-05-07 19:14 -1.88596 -31.40444 36923 ft 491 kts 27°
2026-05-07 19:14 -1.82528 -31.37309 36920 ft 491 kts 27°
2026-05-07 19:15 -1.76452 -31.34170 36925 ft 491 kts 27°
2026-05-07 19:15 -1.70380 -31.31035 36920 ft 491 kts 27°
2026-05-07 19:16 -1.64344 -31.27917 36917 ft 491 kts 27°
2026-05-07 19:16 -1.58260 -31.24776 36919 ft 492 kts 27°
2026-05-07 19:17 -1.52184 -31.21639 36923 ft 492 kts 27°
2026-05-07 19:17 -1.46108 -31.18501 36921 ft 492 kts 27°
2026-05-07 19:18 -1.40062 -31.15380 36924 ft 492 kts 27°
2026-05-07 19:18 -1.33982 -31.12241 36923 ft 492 kts 27°
2026-05-07 19:19 -1.27901 -31.09102 36920 ft 492 kts 27°
2026-05-07 19:19 -1.21868 -31.05987 36921 ft 492 kts 27°
2026-05-07 19:20 -1.15785 -31.02848 36917 ft 492 kts 27°
2026-05-07 19:20 -1.09706 -30.99710 36915 ft 492 kts 27°
2026-05-07 19:21 -1.03622 -30.96571 36917 ft 492 kts 27°
2026-05-07 19:21 -0.97581 -30.93454 36919 ft 491 kts 27°
2026-05-07 19:22 -0.91514 -30.90321 36919 ft 490 kts 27°
2026-05-07 19:22 -0.85461 -30.87188 36918 ft 489 kts 27°
2026-05-07 19:23 -0.79419 -30.84061 36918 ft 489 kts 27°
2026-05-07 19:23 -0.73419 -30.80957 36917 ft 488 kts 27°
2026-05-07 19:24 -0.67385 -30.77837 36920 ft 488 kts 27°
2026-05-07 19:24 -0.61350 -30.74717 36920 ft 488 kts 27°
2026-05-07 19:25 -0.55316 -30.71597 36915 ft 488 kts 27°
2026-05-07 19:25 -0.49324 -30.68500 36916 ft 488 kts 27°
2026-05-07 19:26 -0.43291 -30.65380 36920 ft 488 kts 27°
2026-05-07 19:26 -0.37258 -30.62261 36921 ft 488 kts 27°
2026-05-07 19:27 -0.31228 -30.59144 36920 ft 488 kts 27°
2026-05-07 19:27 -0.25216 -30.56037 36919 ft 488 kts 27°
2026-05-07 19:28 -0.19191 -30.52922 36920 ft 487 kts 27°
2026-05-07 19:28 -0.13169 -30.49809 36918 ft 487 kts 27°
2026-05-07 19:29 -0.07141 -30.46692 36919 ft 487 kts 27°
2026-05-07 19:29 -0.01116 -30.43578 36920 ft 487 kts 27°
2026-05-07 19:30 0.02873 -30.41516 36919 ft 487 kts 27°